GLO2175 SBKG-SBFN

Flight info

Callsign GLO2175
Flight time 0h 52m
Altitude 35000
Route JPS DCT UBRUT DCT EDVUP
Aircraft B738/M-SDE2E3FGHIRWXY/LB1

Departure

Time 2026-04-21 22:01
Airport Presidente João Suassuna Airport (SBKG)

Arrival

Time 2026-04-21 22:53
Airport Fernando de Noronha Airport (SBFN)
Time Latitude Longitude Altitude Speed Heading
2026-04-21 21:31 -7.26932 -35.89416 1662 ft 0 kts 35°
2026-04-21 21:53 -7.26942 -35.89423 1662 ft 2 kts 34°
2026-04-21 21:53 -7.26956 -35.89432 1664 ft 2 kts 35°
2026-04-21 21:54 -7.26962 -35.89446 1659 ft 2 kts 123°
2026-04-21 21:54 -7.26951 -35.89459 1664 ft 2 kts 131°
2026-04-21 21:54 -7.26944 -35.89468 1663 ft 1 kts 127°
2026-04-21 21:54 -7.26943 -35.89469 1662 ft 0 kts 126°
2026-04-21 21:56 -7.26949 -35.89459 1665 ft 3 kts 120°
2026-04-21 21:56 -7.26962 -35.89442 1660 ft 3 kts 147°
2026-04-21 21:56 -7.26972 -35.89442 1662 ft 0 kts 189°
2026-04-21 21:57 -7.26981 -35.89444 1661 ft 5 kts 196°
2026-04-21 21:57 -7.27019 -35.89469 1660 ft 7 kts 224°
2026-04-21 21:58 -7.27018 -35.89519 1656 ft 8 kts 299°
2026-04-21 21:58 -7.26984 -35.89570 1657 ft 9 kts 304°
2026-04-21 21:58 -7.26955 -35.89610 1663 ft 12 kts 305°
2026-04-21 21:58 -7.26869 -35.89733 1658 ft 19 kts 305°
2026-04-21 21:59 -7.26817 -35.89808 1661 ft 20 kts 305°
2026-04-21 21:59 -7.26716 -35.89953 1660 ft 19 kts 305°
2026-04-21 21:59 -7.26643 -35.90058 1656 ft 17 kts 304°
2026-04-21 21:59 -7.26611 -35.90110 1659 ft 11 kts 294°
2026-04-21 22:00 -7.26600 -35.90169 1656 ft 7 kts 289°
2026-04-21 22:00 -7.26571 -35.90175 1659 ft 2 kts 47°
2026-04-21 22:00 -7.26575 -35.90160 1656 ft 2 kts 113°
2026-04-21 22:00 -7.26597 -35.90124 1658 ft 22 kts 124°
2026-04-21 22:01 -7.26858 -35.89749 1661 ft 107 kts 125°
2026-04-21 22:01 -7.27420 -35.88939 1799 ft 162 kts 123°
2026-04-21 22:01 -7.28068 -35.88005 2762 ft 157 kts 124°
2026-04-21 22:01 -7.28606 -35.87038 3697 ft 168 kts 109°
2026-04-21 22:02 -7.28661 -35.85742 3982 ft 204 kts 84°
2026-04-21 22:02 -7.28385 -35.84260 4206 ft 229 kts 82°
2026-04-21 22:02 -7.28079 -35.82604 4501 ft 252 kts 82°
2026-04-21 22:02 -7.27757 -35.80799 5025 ft 267 kts 82°
2026-04-21 22:03 -7.27436 -35.78936 5867 ft 271 kts 82°
2026-04-21 22:03 -7.27122 -35.77048 6736 ft 276 kts 82°
2026-04-21 22:03 -7.26814 -35.75145 7559 ft 279 kts 83°
2026-04-21 22:03 -7.26507 -35.73205 8349 ft 285 kts 83°
2026-04-21 22:04 -7.26198 -35.71224 9227 ft 287 kts 83°
2026-04-21 22:04 -7.25891 -35.69228 10069 ft 290 kts 83°
2026-04-21 22:04 -7.25578 -35.67174 10540 ft 307 kts 83°
2026-04-21 22:04 -7.25242 -35.64952 10709 ft 332 kts 83°
2026-04-21 22:05 -7.24885 -35.62579 10980 ft 351 kts 83°
2026-04-21 22:05 -7.24514 -35.60120 11567 ft 357 kts 82°
2026-04-21 22:05 -7.24139 -35.57640 12281 ft 359 kts 82°
2026-04-21 22:05 -7.23761 -35.55145 12984 ft 362 kts 82°
2026-04-21 22:06 -7.23382 -35.52629 13651 ft 365 kts 82°
2026-04-21 22:06 -7.23004 -35.50122 14233 ft 369 kts 82°
2026-04-21 22:06 -7.22618 -35.47557 14799 ft 372 kts 82°
2026-04-21 22:06 -7.22228 -35.44970 15363 ft 375 kts 82°
2026-04-21 22:07 -7.21834 -35.42359 15932 ft 379 kts 82°
2026-04-21 22:07 -7.21436 -35.39718 16476 ft 383 kts 82°
2026-04-21 22:07 -7.21035 -35.37061 17022 ft 386 kts 82°
2026-04-21 22:07 -7.20630 -35.34374 17564 ft 389 kts 82°
2026-04-21 22:08 -7.20221 -35.31661 18103 ft 393 kts 82°
2026-04-21 22:08 -7.19808 -35.28926 18584 ft 396 kts 82°
2026-04-21 22:08 -7.19391 -35.26169 19018 ft 400 kts 82°
2026-04-21 22:08 -7.18970 -35.23383 19477 ft 403 kts 82°
2026-04-21 22:09 -7.18547 -35.20584 19907 ft 406 kts 82°
2026-04-21 22:09 -7.18125 -35.17795 20333 ft 409 kts 81°
2026-04-21 22:09 -7.17695 -35.14953 20766 ft 412 kts 81°
2026-04-21 22:09 -7.17262 -35.12090 21201 ft 414 kts 81°
2026-04-21 22:10 -7.16826 -35.09209 21607 ft 417 kts 81°
2026-04-21 22:10 -7.16386 -35.06307 21993 ft 421 kts 81°
2026-04-21 22:10 -7.15943 -35.03379 22353 ft 425 kts 81°
2026-04-21 22:10 -7.15496 -35.00429 22725 ft 428 kts 81°
2026-04-21 22:11 -7.14926 -34.97485 23068 ft 431 kts 72°
2026-04-21 22:11 -7.13745 -34.94703 23419 ft 433 kts 60°
2026-04-21 22:11 -7.12013 -34.92214 23747 ft 435 kts 47°
2026-04-21 22:11 -7.09848 -34.90076 24067 ft 436 kts 43°
2026-04-21 22:12 -7.07603 -34.88003 24393 ft 438 kts 42°
2026-04-21 22:12 -7.05334 -34.85939 24720 ft 439 kts 41°
2026-04-21 22:12 -7.03100 -34.83904 25049 ft 440 kts 42°
2026-04-21 22:12 -7.00827 -34.81818 25336 ft 443 kts 42°
2026-04-21 22:13 -6.98552 -34.79715 25614 ft 445 kts 42°
2026-04-21 22:13 -6.96275 -34.77597 25916 ft 446 kts 42°
2026-04-21 22:13 -6.93994 -34.75469 26203 ft 447 kts 42°
2026-04-21 22:13 -6.91705 -34.73330 26449 ft 450 kts 42°
2026-04-21 22:14 -6.89412 -34.71184 26733 ft 451 kts 42°
2026-04-21 22:14 -6.87111 -34.69032 27022 ft 452 kts 42°
2026-04-21 22:14 -6.84794 -34.66864 27256 ft 454 kts 42°
2026-04-21 22:14 -6.82478 -34.64698 27499 ft 456 kts 42°
2026-04-21 22:15 -6.80180 -34.62549 27759 ft 457 kts 42°
2026-04-21 22:15 -6.77844 -34.60367 27993 ft 459 kts 42°
2026-04-21 22:15 -6.75499 -34.58176 28237 ft 460 kts 42°
2026-04-21 22:15 -6.73148 -34.55980 28475 ft 462 kts 42°
2026-04-21 22:16 -6.70794 -34.53780 28729 ft 463 kts 42°
2026-04-21 22:16 -6.68431 -34.51573 28885 ft 466 kts 42°
2026-04-21 22:16 -6.66051 -34.49351 29095 ft 467 kts 42°
2026-04-21 22:16 -6.63671 -34.47128 29375 ft 467 kts 42°
2026-04-21 22:17 -6.61294 -34.44909 29673 ft 466 kts 41°
2026-04-21 22:17 -6.58916 -34.42689 29992 ft 466 kts 42°
2026-04-21 22:17 -6.56538 -34.40469 30239 ft 465 kts 41°
2026-04-21 22:17 -6.54163 -34.38252 30542 ft 464 kts 42°
2026-04-21 22:18 -6.51800 -34.36047 30877 ft 461 kts 42°
2026-04-21 22:18 -6.49449 -34.33853 31185 ft 460 kts 42°
2026-04-21 22:18 -6.47106 -34.31668 31485 ft 459 kts 42°
2026-04-21 22:18 -6.44795 -34.29512 31778 ft 458 kts 42°
2026-04-21 22:19 -6.42452 -34.27327 32139 ft 456 kts 42°
2026-04-21 22:19 -6.40132 -34.25164 32492 ft 454 kts 42°
2026-04-21 22:19 -6.37816 -34.23005 32812 ft 453 kts 42°
2026-04-21 22:19 -6.35505 -34.20851 33120 ft 452 kts 42°
2026-04-21 22:20 -6.33202 -34.18704 33440 ft 451 kts 43°
2026-04-21 22:20 -6.30899 -34.16557 33777 ft 450 kts 43°
2026-04-21 22:20 -6.28639 -34.14452 34104 ft 448 kts 43°
2026-04-21 22:20 -6.26358 -34.12326 34400 ft 447 kts 43°
2026-04-21 22:21 -6.24079 -34.10203 34646 ft 446 kts 43°
2026-04-21 22:21 -6.21803 -34.08082 34900 ft 446 kts 43°
2026-04-21 22:21 -6.19521 -34.05958 34935 ft 448 kts 43°
2026-04-21 22:22 -6.14946 -34.01697 34947 ft 447 kts 43°
2026-04-21 22:22 -6.10398 -33.97463 34952 ft 444 kts 43°
2026-04-21 22:23 -6.05886 -33.93262 34954 ft 442 kts 43°
2026-04-21 22:23 -6.01385 -33.89074 34956 ft 440 kts 43°
2026-04-21 22:24 -5.96889 -33.84891 34956 ft 440 kts 43°
2026-04-21 22:24 -5.92409 -33.80724 34954 ft 441 kts 43°
2026-04-21 22:25 -5.87902 -33.76533 34957 ft 442 kts 43°
2026-04-21 22:25 -5.83378 -33.72327 34951 ft 443 kts 43°
2026-04-21 22:26 -5.78843 -33.68111 34952 ft 445 kts 43°
2026-04-21 22:26 -5.74292 -33.63882 34952 ft 446 kts 43°
2026-04-21 22:27 -5.69735 -33.59648 34951 ft 447 kts 43°
2026-04-21 22:27 -5.65164 -33.55402 34954 ft 447 kts 43°
2026-04-21 22:27 -5.62869 -33.53270 34664 ft 452 kts 43°
2026-04-21 22:28 -5.60583 -33.51148 34137 ft 453 kts 43°
2026-04-21 22:28 -5.58272 -33.49002 33571 ft 451 kts 43°
2026-04-21 22:28 -5.55983 -33.46876 33098 ft 446 kts 43°
2026-04-21 22:28 -5.53712 -33.44768 32613 ft 443 kts 43°
2026-04-21 22:29 -5.51460 -33.42678 32149 ft 439 kts 43°
2026-04-21 22:29 -5.49227 -33.40605 31687 ft 436 kts 43°
2026-04-21 22:29 -5.47010 -33.38546 31238 ft 433 kts 43°
2026-04-21 22:29 -5.44804 -33.36498 30767 ft 431 kts 43°
2026-04-21 22:30 -5.42612 -33.34465 30310 ft 428 kts 43°
2026-04-21 22:30 -5.40421 -33.32445 29815 ft 427 kts 41°
2026-04-21 22:30 -5.38055 -33.30632 29042 ft 430 kts 33°
2026-04-21 22:30 -5.35546 -33.29016 28494 ft 427 kts 32°
2026-04-21 22:31 -5.33020 -33.27446 27970 ft 425 kts 32°
2026-04-21 22:31 -5.30511 -33.25896 27505 ft 421 kts 32°
2026-04-21 22:31 -5.28034 -33.24359 27046 ft 417 kts 32°
2026-04-21 22:31 -5.25584 -33.22827 26594 ft 414 kts 33°
2026-04-21 22:32 -5.23153 -33.21296 26148 ft 410 kts 33°
2026-04-21 22:32 -5.20743 -33.19772 25706 ft 407 kts 33°
2026-04-21 22:32 -5.18385 -33.18277 25243 ft 405 kts 33°
2026-04-21 22:32 -5.15980 -33.16751 24797 ft 403 kts 33°
2026-04-21 22:33 -5.13619 -33.15252 24350 ft 401 kts 33°
2026-04-21 22:33 -5.11270 -33.13760 23905 ft 399 kts 33°
2026-04-21 22:33 -5.08958 -33.12293 23460 ft 397 kts 33°
2026-04-21 22:33 -5.06626 -33.10812 22960 ft 395 kts 33°
2026-04-21 22:34 -5.04316 -33.09346 22503 ft 391 kts 33°
2026-04-21 22:34 -5.02027 -33.07894 22064 ft 388 kts 33°
2026-04-21 22:34 -4.99761 -33.06456 21645 ft 384 kts 33°
2026-04-21 22:34 -4.97510 -33.05029 21222 ft 381 kts 33°
2026-04-21 22:35 -4.95282 -33.03615 20796 ft 378 kts 33°
2026-04-21 22:35 -4.93063 -33.02208 20374 ft 375 kts 33°
2026-04-21 22:35 -4.90869 -33.00817 19954 ft 372 kts 33°
2026-04-21 22:35 -4.88683 -32.99430 19544 ft 370 kts 33°
2026-04-21 22:36 -4.84348 -32.96681 18707 ft 367 kts 33°
2026-04-21 22:36 -4.82196 -32.95316 18293 ft 365 kts 33°
2026-04-21 22:36 -4.80054 -32.93959 17834 ft 363 kts 34°
2026-04-21 22:37 -4.77923 -32.92608 17403 ft 361 kts 34°
2026-04-21 22:37 -4.75811 -32.91269 16985 ft 358 kts 34°
2026-04-21 22:37 -4.73737 -32.89954 16591 ft 355 kts 34°
2026-04-21 22:37 -4.71659 -32.88637 16189 ft 353 kts 34°
2026-04-21 22:38 -4.69594 -32.87328 15795 ft 350 kts 34°
2026-04-21 22:38 -4.67541 -32.86026 15405 ft 348 kts 34°
2026-04-21 22:38 -4.65501 -32.84733 15012 ft 346 kts 34°
2026-04-21 22:38 -4.63473 -32.83448 14608 ft 345 kts 34°
2026-04-21 22:39 -4.61445 -32.82164 14206 ft 344 kts 34°
2026-04-21 22:39 -4.59339 -32.81028 13774 ft 346 kts 23°
2026-04-21 22:39 -4.57051 -32.80265 13295 ft 347 kts 19°
2026-04-21 22:39 -4.54750 -32.79557 12876 ft 345 kts 19°
2026-04-21 22:40 -4.52463 -32.78860 12480 ft 342 kts 19°
2026-04-21 22:40 -4.50193 -32.78165 12088 ft 340 kts 19°
2026-04-21 22:40 -4.47938 -32.77468 11704 ft 337 kts 19°
2026-04-21 22:40 -4.45702 -32.76772 11324 ft 335 kts 19°
2026-04-21 22:41 -4.43481 -32.76076 10935 ft 334 kts 19°
2026-04-21 22:41 -4.41268 -32.75381 10559 ft 332 kts 19°
2026-04-21 22:41 -4.39082 -32.74694 10366 ft 324 kts 19°
2026-04-21 22:41 -4.36954 -32.74024 10195 ft 316 kts 19°
2026-04-21 22:42 -4.34879 -32.73371 10057 ft 308 kts 19°
2026-04-21 22:42 -4.32866 -32.72737 9918 ft 299 kts 19°
2026-04-21 22:42 -4.30939 -32.72130 9662 ft 293 kts 19°
2026-04-21 22:42 -4.29006 -32.71520 9303 ft 289 kts 19°
2026-04-21 22:43 -4.27083 -32.70913 8971 ft 289 kts 19°
2026-04-21 22:43 -4.25168 -32.70308 8669 ft 288 kts 19°
2026-04-21 22:43 -4.23256 -32.69705 8365 ft 287 kts 19°
2026-04-21 22:43 -4.21348 -32.69103 8067 ft 286 kts 19°
2026-04-21 22:44 -4.20086 -32.68705 7875 ft 286 kts 19°
2026-04-21 22:44 -4.17547 -32.67905 7473 ft 285 kts 19°
2026-04-21 22:44 -4.16294 -32.67510 7275 ft 285 kts 19°
2026-04-21 22:44 -4.14398 -32.66912 6975 ft 285 kts 19°
2026-04-21 22:45 -4.12510 -32.66317 6675 ft 285 kts 19°
2026-04-21 22:45 -4.10616 -32.65720 6356 ft 285 kts 19°
2026-04-21 22:45 -4.08114 -32.64932 5942 ft 284 kts 19°
2026-04-21 22:45 -4.06842 -32.64531 5737 ft 284 kts 19°
2026-04-21 22:46 -4.04980 -32.63945 5429 ft 276 kts 19°
2026-04-21 22:46 -4.03167 -32.63373 5162 ft 271 kts 19°
2026-04-21 22:46 -4.01415 -32.62822 4899 ft 264 kts 19°
2026-04-21 22:46 -3.99683 -32.62276 4630 ft 257 kts 20°
2026-04-21 22:47 -3.97995 -32.61744 4366 ft 250 kts 19°
2026-04-21 22:47 -3.96365 -32.61231 4196 ft 239 kts 19°
2026-04-21 22:47 -3.94817 -32.60745 4073 ft 227 kts 19°
2026-04-21 22:47 -3.93287 -32.60386 3921 ft 228 kts
2026-04-21 22:48 -3.91741 -32.60273 3867 ft 217 kts
2026-04-21 22:48 -3.90264 -32.60186 3757 ft 208 kts
2026-04-21 22:48 -3.88841 -32.60094 3682 ft 208 kts
2026-04-21 22:48 -3.87377 -32.59991 3574 ft 211 kts
2026-04-21 22:49 -3.85927 -32.59855 3364 ft 205 kts 17°
2026-04-21 22:49 -3.84797 -32.59119 3146 ft 189 kts 58°
2026-04-21 22:49 -3.84328 -32.57952 2953 ft 176 kts 85°
2026-04-21 22:49 -3.84324 -32.56762 2761 ft 164 kts 97°
2026-04-21 22:50 -3.84407 -32.55667 2608 ft 151 kts 97°
2026-04-21 22:50 -3.84496 -32.54616 2464 ft 147 kts 97°
2026-04-21 22:50 -3.84576 -32.53628 2261 ft 139 kts 97°
2026-04-21 22:50 -3.84651 -32.52685 2080 ft 135 kts 97°
2026-04-21 22:51 -3.84723 -32.51754 1922 ft 137 kts 96°
2026-04-21 22:51 -3.84797 -32.50790 1727 ft 136 kts 96°
2026-04-21 22:51 -3.84870 -32.49857 1546 ft 136 kts 97°
2026-04-21 22:51 -3.84943 -32.48909 1361 ft 137 kts 96°
2026-04-21 22:52 -3.85009 -32.47968 1234 ft 135 kts 96°
2026-04-21 22:52 -3.85074 -32.47012 1000 ft 142 kts 96°
2026-04-21 22:52 -3.85155 -32.46037 808 ft 137 kts 96°
2026-04-21 22:52 -3.85215 -32.45093 595 ft 135 kts 95°
2026-04-21 22:53 -3.85294 -32.44162 453 ft 134 kts 97°
2026-04-21 22:53 -3.85369 -32.43222 242 ft 134 kts 96°
2026-04-21 22:53 -3.85438 -32.42369 173 ft 107 kts 95°
2026-04-21 22:53 -3.85481 -32.41847 180 ft 45 kts 94°
2026-04-21 22:54 -3.85500 -32.41605 182 ft 20 kts 94°
2026-04-21 22:54 -3.85482 -32.41530 182 ft 8 kts 54°
2026-04-21 22:54 -3.85486 -32.41497 181 ft 4 kts 146°
2026-04-21 22:54 -3.85509 -32.41505 181 ft 4 kts 232°
2026-04-21 22:55 -3.85508 -32.41536 181 ft 7 kts 276°
2026-04-21 22:55 -3.85499 -32.41617 182 ft 16 kts 276°
2026-04-21 22:55 -3.85488 -32.41754 181 ft 24 kts 274°
2026-04-21 22:55 -3.85475 -32.41926 181 ft 24 kts 274°
2026-04-21 22:56 -3.85462 -32.42087 180 ft 23 kts 274°
2026-04-21 22:56 -3.85450 -32.42244 175 ft 22 kts 274°
2026-04-21 22:56 -3.85439 -32.42396 173 ft 22 kts 274°
2026-04-21 22:56 -3.85428 -32.42544 174 ft 21 kts 274°
2026-04-21 22:57 -3.85417 -32.42681 172 ft 13 kts 275°
2026-04-21 22:57 -3.85431 -32.42729 171 ft 7 kts 220°
2026-04-21 22:57 -3.85469 -32.42746 172 ft 6 kts 201°
2026-04-21 22:57 -3.85508 -32.42759 172 ft 6 kts 199°
2026-04-21 22:58 -3.85555 -32.42776 169 ft 8 kts 200°
2026-04-21 22:58 -3.85586 -32.42785 169 ft 4 kts 186°
2026-04-21 22:58 -3.85597 -32.42782 169 ft 0 kts 138°